Weather History for Nuiqsut, AK

Change the Weather History Date:

Thursday, February 21, 2013

  Actual Average (PAKU) Record (PAKU)
Temperature  
Mean Temperature -30 °F -  
Max Temperature -27 °F -12 °F 19 °F (2008)
Min Temperature -33 °F -19 °F -45 °F (1984)
Degree Days  
Heating Degree Days 95    
Moisture  
Dew Point -34 °F    
Average Humidity 75    
Maximum Humidity 77    
Minimum Humidity 69    
Precipitation  
Precipitation 0.00 in - - ()
Sea Level Pressure  
Sea Level Pressure 30.15 in    
Wind  
Wind Speed 15 mph (NE)    
Max Wind Speed 23 mph    
Max Gust Speed 31 mph    
Visibility 3 miles    
Events      
Averages and records for this station are not official NWS values.
T = Trace of Precipitation, MM = Missing Value Source: NWS Daily Summary

Daily Weather History Graph

Daily Weather History Graph

Search for Another Location

Airport:

Trip Planner

Search our weather history database for the weather conditions in past years. The results will help you decide how hot, cold, wet, or windy it might be!

Date:

Astronomy

Feb. 21, 2013 Rise Set
Actual Time 9:07 AM AKST 5:29 PM AKST
Civil Twilight 8:01 AM AKST 6:35 PM AKST
Nautical Twilight 6:50 AM AKST 7:46 PM AKST
Astronomical Twilight 5:38 AM AKST 8:59 PM AKST
Moon 11:46 AM AKST (2/21) 8:30 AM AKST (2/21)
Length of Visible Light 10h 33m
Length of Day
8h 21m
Waxing Gibbous, 85% of the Moon is Illuminated
Feb 21
Waxing Gibbous
Feb 25
Full
Mar 4
Last Quarter
Mar 11
New
Mar 19
First Quarter

Hourly Weather History & Observations

Time (AKST) Temp. Windchill Dew Point Humidity Pressure Visibility Wind Dir Wind Speed Gust Speed Precip Events Conditions
12:53 AM -29.9 °F - - N/A% 30.23 in 7.0 mi North - - N/A   Clear
1:53 AM -31.0 °F - - N/A% 30.22 in 7.0 mi North - - N/A   Clear
2:53 AM -31.0 °F - - N/A% 30.22 in 7.0 mi North - - N/A   Unknown
3:53 AM -32.1 °F -56.1 °F - N/A% 30.22 in 6.0 mi NE 10.4 mph - N/A   Haze
4:53 AM -32.1 °F -58.4 °F - N/A% 30.21 in 5.0 mi NE 12.7 mph - N/A   Haze
5:41 AM -32.8 °F - - N/A% 30.20 in 6.0 mi North - - N/A   Haze
5:53 AM -33.0 °F - - N/A% 30.20 in - North - - N/A   Mostly Cloudy
6:00 AM -32.8 °F - - N/A% 30.20 in - North - - N/A   Unknown
6:53 AM - - - N/A% 30.20 in - NE 15.0 mph 31.1 mph N/A   Unknown
7:24 AM -32.8 °F -62.3 °F - N/A% 30.19 in 4.0 mi NE 16.1 mph - N/A   Haze
7:53 AM -32.1 °F -59.5 °F - N/A% 30.19 in 3.0 mi NE 13.8 mph - N/A   Mostly Cloudy
8:43 AM -32.8 °F -60.4 °F - N/A% 30.18 in 5.0 mi NE 13.8 mph - N/A   Haze
8:53 AM -33.0 °F -59.6 °F - N/A% 30.19 in 5.0 mi NE 12.7 mph - N/A   Haze
9:13 AM -32.8 °F -62.3 °F - N/A% 30.18 in 3.0 mi NE 16.1 mph - N/A   Mostly Cloudy
9:20 AM -32.8 °F -61.4 °F - N/A% 30.18 in 2.5 mi NE 15.0 mph - N/A   Mostly Cloudy
9:48 AM -32.8 °F -62.3 °F - N/A% 30.18 in 3.0 mi NE 16.1 mph - N/A   Mostly Cloudy
9:53 AM -32.1 °F -60.4 °F - N/A% 30.18 in 2.5 mi NE 15.0 mph - N/A   Mostly Cloudy
10:31 AM -31.0 °F -60.0 °F - N/A% 30.17 in 1.8 mi NE 16.1 mph - N/A   Overcast
10:53 AM -31.0 °F -60.0 °F - N/A% 30.18 in 1.8 mi NE 16.1 mph - N/A   Overcast
11:04 AM -31.0 °F -60.8 °F - N/A% 30.17 in 2.0 mi NE 17.3 mph - N/A   Overcast
11:53 AM -31.0 °F -60.8 °F - N/A% 30.17 in 2.5 mi NE 17.3 mph - N/A   Overcast
12:13 PM -31.0 °F -61.6 °F - N/A% 30.16 in 3.0 mi NE 18.4 mph - N/A   Overcast
12:21 PM -31.0 °F -61.6 °F - N/A% 30.16 in 2.5 mi NE 18.4 mph - N/A   Overcast
12:42 PM -31.0 °F -60.8 °F - N/A% 30.16 in 2.5 mi NE 17.3 mph - N/A   Scattered Clouds
12:53 PM -29.9 °F -58.6 °F - N/A% 30.16 in 3.0 mi NE 16.1 mph - N/A   Clear
1:13 PM -29.2 °F -58.5 °F - N/A% 30.15 in 2.5 mi NE 17.3 mph - N/A   Clear
1:24 PM -29.2 °F -57.6 °F -34.6 °F 75% 30.15 in 3.0 mi NE 16.1 mph - N/A   Haze
1:49 PM -29.2 °F -54.8 °F -34.6 °F 75% 30.14 in 2.5 mi NNE 12.7 mph - N/A   Haze
1:53 PM -29.0 °F -55.6 °F -34.1 °F 77% 30.14 in 2.5 mi NNE 13.8 mph - N/A   Haze
2:03 PM -29.2 °F -55.8 °F -34.6 °F 75% 30.13 in 1.5 mi NNE 13.8 mph - N/A   Haze
2:10 PM -27.4 °F -53.5 °F -34.6 °F 69% 30.13 in 1.2 mi NE 13.8 mph - N/A   Haze
2:53 PM -27.9 °F -56.8 °F -33.0 °F 77% 30.14 in 0.8 mi NE 17.3 mph - N/A   Haze
4:05 PM -29.2 °F -59.3 °F -34.6 °F 75% 30.13 in 0.5 mi NE 18.4 mph - N/A   Haze
4:25 PM -29.2 °F -58.5 °F -34.6 °F 75% 30.13 in 0.8 mi NE 17.3 mph - N/A   Haze
4:45 PM -29.2 °F -55.8 °F - N/A% 30.13 in 1.0 mi NE 13.8 mph - N/A   Overcast
4:53 PM -29.9 °F -57.7 °F - N/A% 30.14 in 1.2 mi NE 15.0 mph - N/A   Overcast
5:53 PM -29.9 °F -56.7 °F - N/A% 30.13 in 1.2 mi NE 13.8 mph - N/A   Overcast
6:19 PM -29.2 °F -56.8 °F - N/A% 30.12 in 2.5 mi NE 15.0 mph - N/A   Overcast
6:31 PM -29.2 °F -55.8 °F - N/A% 30.12 in 2.5 mi NE 13.8 mph - N/A   Overcast
6:53 PM -29.9 °F -56.7 °F - N/A% 30.12 in 2.0 mi NE 13.8 mph - N/A   Overcast
7:30 PM -29.2 °F -59.3 °F -34.6 °F 75% 30.12 in 1.8 mi NE 18.4 mph - N/A   Haze
7:40 PM -29.2 °F -57.6 °F -34.6 °F 75% 30.12 in 2.0 mi NE 16.1 mph - N/A   Haze
7:53 PM -29.0 °F -58.2 °F -34.1 °F 77% 30.12 in 2.0 mi NE 17.3 mph - N/A   Haze
8:03 PM -29.2 °F -58.5 °F -34.6 °F 75% 30.12 in 1.5 mi NE 17.3 mph - N/A   Haze
8:21 PM -29.2 °F -59.3 °F -34.6 °F 75% 30.11 in 1.8 mi NE 18.4 mph - N/A   Haze
8:53 PM -29.0 °F -59.8 °F -34.1 °F 77% 30.12 in 1.8 mi NE 19.6 mph - N/A   Haze
9:35 PM -29.2 °F -61.4 °F -34.6 °F 75% 30.10 in 1.8 mi NE 21.9 mph - N/A   Haze
9:53 PM -29.0 °F -59.8 °F -34.1 °F 77% 30.11 in 1.2 mi NE 19.6 mph - N/A   Haze
10:04 PM -29.2 °F -61.4 °F -34.6 °F 75% 30.10 in 1.2 mi NE 21.9 mph - N/A   Haze
10:25 PM -27.4 °F -56.1 °F -32.8 °F 75% 30.10 in 1.2 mi NE 17.3 mph - N/A   Haze
10:53 PM -27.9 °F -58.4 °F -33.0 °F 77% 30.11 in 1.0 mi NE 19.6 mph - N/A   Haze
11:21 PM -27.4 °F -59.0 °F -32.8 °F 75% 30.10 in 0.8 mi NE 21.9 mph - N/A   Haze
11:29 PM -27.4 °F -59.7 °F -32.8 °F 75% 30.10 in 1.0 mi NE 23.0 mph - N/A   Haze
11:53 PM -27.9 °F -59.7 °F -33.0 °F 77% 30.11 in 0.8 mi NE 21.9 mph - N/A   Haze